Location: Las Vegas
(36.1750°N, 115.1360°W)
Time: 20:18:50
(UTC-07:00)

Amateur Radio Satellites - All Passes

Search period start: 30 March 2015 19:48
Search period end: 31 March 2015 19:48
Location: Las Vegas, 36.1750°N, 115.1360°W

Satellite Date Start Highest point End Downlink Frequencies (MHz)
Time Altitude Azimuth
AAUSAT CUBESAT 2 30 Mar 19:50:39 19:51:12 10° 66° (ENE) 19:52:00 437.432
SEEDS 30 Mar 19:56:23 19:59:14 18° 69° (ENE) 20:02:12 437.485
SO-50 30 Mar 20:00:21 20:03:20 16° 316° (NW) 20:06:14 436.795
GOMX 1 30 Mar 20:04:13 20:08:14 34° 73° (ENE) 20:12:07 467.674
AIST 2 30 Mar 20:15:22 20:19:35 67° 243° (WSW) 20:23:42 435.215
COMPASS 1 30 Mar 20:15:58 20:19:20 25° 71° (ENE) 20:22:49 437.405
DANDE 30 Mar 20:24:09 20:26:29 19° 97° (E) 20:28:37 436.750
RS-15 30 Mar 20:25:01 20:35:20 44° 313° (NW) 20:45:44 29.354- 29.394
Oscar 11 30 Mar 20:25:38 20:27:34 13° 67° (ENE) 20:29:43 145.826/435.025
BEESAT 2 30 Mar 20:34:48 20:36:47 13° 250° (WSW) 20:38:32 435.950
STRAND 1 30 Mar 20:41:23 20:45:35 26° 291° (WNW) 20:49:41 437.568
ISS 30 Mar 20:44:13 20:45:25 12° 128° (SE) 20:46:45 145.825
UWE-3 30 Mar 20:47:22 20:49:22 14° 68° (ENE) 20:51:34 435.000/436.395/437.385
CANX-2 30 Mar 20:49:50 20:54:03 76° 259° (WSW) 20:58:19 2200.000
CINEMA 3 30 Mar 20:51:50 20:55:41 37° 73° (ENE) 20:59:31 145.822/145.860
ZACube-1 30 Mar 20:52:52 20:54:35 13° 67° (ENE) 20:56:29 437.345
DELFI C3 30 Mar 20:53:42 20:56:37 20° 70° (ENE) 20:59:39 145.870
CUBEBUG 2 30 Mar 20:54:30 20:57:32 20° 70° (ENE) 21:00:40 437.445
BRITE-PL 30 Mar 21:03:11 21:07:27 31° 263° (W) 21:11:25 437.365/2234.400
CUTE 1.7 + AOD 2 30 Mar 21:03:37 21:07:47 57° 260° (W) 21:11:58 437.475
CUSAT 1 30 Mar 21:07:44 21:10:29 39° 280° (W) 21:12:58 437.405
AAUSAT CUBESAT 2 30 Mar 21:22:16 21:26:22 59° 260° (W) 21:30:31 437.432
DOVE 4 30 Mar 21:23:26 21:27:36 42° 261° (W) 21:31:36 437.250
HUMSAT D 30 Mar 21:30:40 21:33:15 17° 69° (ENE) 21:35:59 437.325/437.525
HO-68 30 Mar 21:30:47 21:37:27 40° 262° (W) 21:44:06 435.675
UKube-1 30 Mar 21:30:48 21:34:26 27° 71° (ENE) 21:38:10 .
SEEDS 30 Mar 21:31:03 21:34:50 32° 264° (W) 21:38:37 437.485
GONETS M04 30 Mar 21:31:05 21:36:52 18° 296° (WNW) 21:42:10
DX 1 30 Mar 21:42:38 21:46:41 40° 73° (ENE) 21:50:47 434.975-435.025
GOMX 1 30 Mar 21:43:24 21:46:30 18° 266° (W) 21:49:21 467.674
COMPASS 1 30 Mar 21:51:38 21:55:00 23° 266° (W) 21:58:18 437.405
50 SAT 30 Mar 21:58:30 22:01:30 22° 71° (ENE) 22:04:37 437.505
Oscar 11 30 Mar 21:59:12 22:03:22 48° 261° (W) 22:07:35 145.826/435.025
FUNcube-1 30 Mar 22:12:56 22:17:03 70° 260° (W) 22:21:12 145.935
ISS 30 Mar 22:18:19 22:21:31 54° 321° (NW) 22:24:43 145.825
UWE-3 30 Mar 22:21:41 22:25:37 41° 262° (W) 22:29:33 435.000/436.395/437.385
CUBEBUG 1 30 Mar 22:25:11 22:28:29 22° 70° (ENE) 22:31:54 437.445
ZACube-1 30 Mar 22:26:37 22:30:37 45° 262° (W) 22:34:36 437.345
DELFI C3 30 Mar 22:28:08 22:31:38 27° 264° (W) 22:35:07 145.870
VELOX 1 30 Mar 22:28:42 22:33:02 55° 74° (ENE) 22:37:23 145.980
CUBEBUG 2 30 Mar 22:30:35 22:34:08 26° 265° (W) 22:37:37 437.445
CINEMA 3 30 Mar 22:30:42 22:33:06 14° 268° (W) 22:35:19 145.822/145.860
AISAT 30 Mar 22:34:01 22:38:25 66° 75° (ENE) 22:42:49 437.250
UNISAT 6 30 Mar 22:41:49 22:45:55 31° 97° (E) 22:50:07 437.425
RS-15 30 Mar 22:45:41 22:51:54 16° 344° (NNW) 22:57:55 29.354- 29.394
TIGRISAT 30 Mar 22:51:09 22:55:27 39° 98° (E) 22:59:50 435.000
QB50P1 30 Mar 23:01:17 23:04:42 24° 95° (E) 23:08:10 145.935-145.965
DUCHIFAT 1 30 Mar 23:02:13 23:05:35 24° 95° (E) 23:09:03 145.980
HUMSAT D 30 Mar 23:05:06 23:08:49 32° 263° (W) 23:12:31 437.325/437.525
UKube-1 30 Mar 23:07:09 23:10:35 22° 265° (W) 23:13:56 .
ESTCUBE 1 30 Mar 23:08:48 23:13:20 78° 76° (ENE) 23:17:54 437.505/2401.250
QB50P2 30 Mar 23:16:18 23:20:14 37° 98° (E) 23:24:11 145.880/145.840
DX 1 30 Mar 23:20:29 23:23:09 15° 268° (W) 23:25:39 434.975-435.025
ANTELSAT 30 Mar 23:22:04 23:26:43 90° 318° (NW) 23:31:24 437.575/2403.000
YUBILEINY 30 Mar 23:30:49 23:37:11 23° 66° (ENE) 23:43:54 435.215
50 SAT 30 Mar 23:33:16 23:36:22 22° 265° (W) 23:39:24 437.505
BUGSAT 1 30 Mar 23:35:14 23:39:02 41° 99° (E) 23:42:52 437.445
PCSat 30 Mar 23:38:46 23:44:06 57° 60° (ENE) 23:49:25 145.827
POPSAT HIP 1 30 Mar 23:44:28 23:48:43 81° 102° (ESE) 23:52:57 437.405
TISAT 1 30 Mar 23:46:48 23:50:40 36° 73° (ENE) 23:54:33 437.305
NANOSAT C BR1 30 Mar 23:54:24 23:58:38 76° 284° (WNW) 00:02:51 145.865
ISS 30 Mar 23:57:56 23:58:32 10° 339° (NNW) 23:59:04 145.825
POLYITAN 1 31 Mar 00:00:11 00:04:23 63° 284° (WNW) 00:08:35 437.675
CUBEBUG 1 31 Mar 00:00:51 00:04:43 29° 264° (W) 00:08:33 437.445
SPROUT 31 Mar 00:02:51 00:07:07 69° 75° (ENE) 00:11:23 437.525
VELOX 1 31 Mar 00:08:25 00:10:00 11° 270° (W) 00:11:19 145.980
UNISAT 6 31 Mar 00:18:56 00:22:33 23° 290° (WNW) 00:26:07 437.425
TIGRISAT 31 Mar 00:28:43 00:31:57 19° 291° (WNW) 00:35:04 435.000
ITUPSAT 1 31 Mar 00:33:15 00:36:36 20° 68° (ENE) 00:40:06 437.325
QB50P1 31 Mar 00:37:04 00:40:31 24° 289° (WNW) 00:43:54 145.935-145.965
DUCHIFAT 1 31 Mar 00:37:56 00:41:22 24° 289° (WNW) 00:44:44 145.980
QB50P2 31 Mar 00:53:10 00:55:53 16° 291° (WNW) 00:58:26 145.880/145.840
RS-15 31 Mar 01:04:10 01:10:48 17° 20° (NNE) 01:17:58 29.354- 29.394
BUGSAT 1 31 Mar 01:12:11 01:14:13 13° 292° (WNW) 01:16:04 437.445
SWISSCUBE 31 Mar 01:18:44 01:23:28 65° 75° (ENE) 01:28:16 437.505
BEESAT 31 Mar 01:21:24 01:26:08 64° 75° (ENE) 01:30:54 436.000
PCSat 31 Mar 01:23:39 01:27:06 17° 254° (WSW) 01:30:18 145.827
TISAT 1 31 Mar 01:24:00 01:26:38 16° 268° (W) 01:29:05 437.305
YUBILEINY 31 Mar 01:26:11 01:34:57 70° 266° (W) 01:43:36 435.215
Oscar 19 31 Mar 01:38:27 01:43:12 37° 97° (E) 01:48:01 437.125/150
Gurwin Techsat 1B 31 Mar 02:08:41 02:12:06 18° 91° (E) 02:15:43 435.225
ITUPSAT 1 31 Mar 02:09:43 02:14:15 39° 262° (W) 02:18:46 437.325
O/OREOS (USA 219) 31 Mar 02:34:55 02:37:13 14° 100° (E) 02:39:45 437.305
KKS-1 31 Mar 02:38:18 02:42:43 77° 76° (ENE) 02:47:09 437.445
ITAMSAT 1 31 Mar 02:47:40 02:52:44 54° 100° (E) 02:57:47 435.822/435.867
SO-50 31 Mar 02:52:01 02:56:20 30° 51° (NE) 03:00:40 436.795
SWISSCUBE 31 Mar 03:00:24 03:01:53 11° 271° (W) 03:03:01 437.505
BEESAT 31 Mar 03:02:53 03:04:30 11° 271° (W) 03:05:47 436.000
STARS 31 Mar 03:06:05 03:10:27 81° 256° (WSW) 03:14:52 437.465
HORYU 2 31 Mar 03:10:49 03:13:06 14° 91° (E) 03:15:37 437.375
RS-15 31 Mar 03:16:06 03:27:06 50° 50° (NE) 03:38:41 29.354- 29.394
Oscar 19 31 Mar 03:18:16 03:22:23 24° 292° (WNW) 03:26:22 437.125/150
AO-7 31 Mar 03:40:33 03:46:56 25° 94° (E) 03:53:36 29.400- 29.500
JAS-2 31 Mar 03:44:42 03:50:21 23° 89° (E) 03:55:54 435.910
Gurwin Techsat 1B 31 Mar 03:47:17 03:52:25 49° 287° (WNW) 03:57:30 435.225
AIST 1 31 Mar 03:52:52 03:57:14 67° 95° (E) 04:01:36
O/OREOS (USA 219) 31 Mar 04:11:51 04:16:17 47° 294° (WNW) 04:20:44 437.305
VERMONT LUNAR 31 Mar 04:13:42 04:16:54 44° 152° (SSE) 04:20:06 437.305
MOZHAYETS 4 31 Mar 04:26:20 04:30:52 60° 75° (ENE) 04:35:28
ITAMSAT 1 31 Mar 04:28:33 04:31:51 17° 294° (WNW) 04:34:56 435.822/435.867
AUBIESAT-1 31 Mar 04:31:24 04:34:52 28° 65° (ENE) 04:38:39 437.475
SO-50 31 Mar 04:32:30 04:36:53 31° 247° (WSW) 04:41:08 436.795
HORYU 2 31 Mar 04:45:44 04:50:04 46° 287° (WNW) 04:54:21 437.375
ISS 31 Mar 04:47:58 04:51:07 49° 37° (NE) 04:54:15 145.825
M-CUBED/EXP-1 PRIME 31 Mar 04:56:55 05:00:52 64° 71° (ENE) 05:05:13 437.505
PHONESAT 2.4 31 Mar 05:09:44 05:13:09 49° 153° (SSE) 05:16:35 2401.200-2431.200
JAS-2 31 Mar 05:28:27 05:36:01 61° 288° (WNW) 05:42:51 435.910
RS-15 31 Mar 05:28:41 05:39:38 48° 249° (WSW) 05:50:49 29.354- 29.394
AO-7 31 Mar 05:32:08 05:40:19 63° 291° (WNW) 05:48:27 29.400- 29.500
GONETS M04 31 Mar 05:44:00 05:51:56 37° 73° (ENE) 06:00:00
VERMONT LUNAR 31 Mar 05:51:20 05:54:36 49° 348° (NNW) 05:57:51 437.305
AUBIESAT-1 31 Mar 06:06:36 06:09:45 21° 263° (W) 06:12:59 437.475
MOZHAYETS 4 31 Mar 06:07:01 06:08:35 11° 271° (W) 06:09:50
STRAND 1 31 Mar 06:15:13 06:19:52 36° 71° (ENE) 06:24:36 437.568
PRISM 31 Mar 06:18:20 06:22:28 57° 75° (ENE) 06:26:37 437.425
CUBESAT XI-V 31 Mar 06:18:41 06:23:22 72° 77° (ENE) 06:28:06 437.345
ISS 31 Mar 06:25:40 06:27:14 13° 231° (SW) 06:28:41 145.825
PHONESAT 2.4 31 Mar 06:48:05 06:51:32 49° 349° (N) 06:54:58 2401.200-2431.200
CUTE-I 31 Mar 07:02:15 07:07:36 82° 103° (ESE) 07:12:55 437.470
Cubesat XI-IV 31 Mar 07:03:03 07:08:24 84° 102° (ESE) 07:13:43 437.490
DANDE 31 Mar 07:03:47 07:07:12 22° 78° (ENE) 07:11:33 436.750
JAS-2 31 Mar 07:17:49 07:19:35 11° 305° (NW) 07:20:47 435.910
AO-7 31 Mar 07:28:33 07:31:43 12° 309° (NW) 07:34:19 29.400- 29.500
VERMONT LUNAR 31 Mar 07:29:28 07:32:37 38° 5° (N) 07:35:47 437.305
GONETS M04 31 Mar 07:40:41 07:48:55 44° 271° (W) 07:57:01
CUSAT 1 31 Mar 07:43:45 07:48:26 77° 81° (E) 07:54:45 437.405
STRAND 1 31 Mar 07:55:05 07:59:12 23° 266° (W) 08:03:10 437.568
GOMX 1 31 Mar 08:09:56 08:11:21 12° 91° (E) 08:13:03 467.674
PHONESAT 2.4 31 Mar 08:26:51 08:30:13 41° 6° (N) 08:33:35 2401.200-2431.200
CANX-2 31 Mar 08:38:33 08:41:55 23° 94° (E) 08:45:23 2200.000
CUTE-I 31 Mar 08:45:07 08:47:04 12° 297° (WNW) 08:48:41 437.470
Cubesat XI-IV 31 Mar 08:46:05 08:47:53 11° 297° (WNW) 08:49:19 437.490
DANDE 31 Mar 08:46:18 08:50:24 33° 263° (W) 08:55:39 436.750
BEESAT 2 31 Mar 08:47:58 08:50:35 17° 111° (ESE) 08:53:22 435.950
CINEMA 3 31 Mar 08:50:49 08:52:15 12° 90° (E) 08:54:00 145.822/145.860
CUTE 1.7 + AOD 2 31 Mar 08:51:52 08:55:37 29° 96° (E) 08:59:24 437.475
HO-68 31 Mar 09:00:50 09:07:41 46° 99° (E) 09:14:33 435.675
VERMONT LUNAR 31 Mar 09:07:09 09:10:31 89° 205° (SSW) 09:13:53 437.305
AAUSAT CUBESAT 2 31 Mar 09:08:32 09:12:03 26° 95° (E) 09:15:37 437.432
BRITE-PL 31 Mar 09:09:28 09:13:44 87° 280° (W) 09:18:14 437.365/2234.400
SEEDS 31 Mar 09:17:42 09:21:51 49° 99° (E) 09:26:01 437.485
BEESAT 3 31 Mar 09:21:03 09:24:59 50° 116° (ESE) 09:29:01 437.485
DOVE 4 31 Mar 09:24:11 09:28:31 57° 100° (E) 09:33:08 437.250
CUSAT 1 31 Mar 09:30:10 09:31:19 10° 266° (W) 09:32:04 437.405
COMPASS 1 31 Mar 09:36:51 09:41:06 68° 101° (E) 09:45:19 437.405
UNISAT 6 31 Mar 09:39:22 09:42:23 20° 69° (ENE) 09:45:33 437.425
GOMX 1 31 Mar 09:45:35 09:49:48 52° 285° (WNW) 09:54:16 467.674
TIGRISAT 31 Mar 09:48:13 09:51:34 24° 70° (ENE) 09:55:03 435.000
Oscar 11 31 Mar 09:49:16 09:53:16 35° 97° (E) 09:57:18 145.826/435.025
QB50P1 31 Mar 09:53:02 09:55:05 14° 68° (ENE) 09:57:19 145.935-145.965
DUCHIFAT 1 31 Mar 09:53:40 09:55:40 14° 68° (ENE) 09:57:52 145.980
FUNcube-1 31 Mar 10:04:08 10:07:52 27° 96° (E) 10:11:43 145.935
PHONESAT 2.4 31 Mar 10:05:12 10:08:44 81° 205° (SSW) 10:12:17 2401.200-2431.200
QB50P2 31 Mar 10:07:29 10:10:35 21° 70° (ENE) 10:13:47 145.880/145.840
DELFI C3 31 Mar 10:09:57 10:13:54 47° 99° (E) 10:17:51 145.870
AIST 2 31 Mar 10:10:42 10:14:47 49° 116° (ESE) 10:18:57 435.215
UWE-3 31 Mar 10:13:39 10:17:55 44° 99° (E) 10:22:18 435.000/436.395/437.385
CANX-2 31 Mar 10:14:11 10:17:51 26° 289° (WNW) 10:21:25 2200.000
ZACube-1 31 Mar 10:17:32 10:21:41 39° 98° (E) 10:25:56 437.345
ANTELSAT 31 Mar 10:18:45 10:22:54 56° 75° (ENE) 10:27:09 437.575/2403.000
CUBEBUG 2 31 Mar 10:23:02 10:27:31 71° 101° (ESE) 10:32:07 437.445
BUGSAT 1 31 Mar 10:23:26 10:26:33 21° 71° (ENE) 10:29:45 437.445
VELOX 1 31 Mar 10:23:57 10:25:45 13° 91° (E) 10:27:49 145.980
BEESAT 2 31 Mar 10:24:39 10:28:29 36° 305° (NW) 10:32:20 435.950
CINEMA 3 31 Mar 10:25:25 10:29:49 57° 285° (WNW) 10:34:24 145.822/145.860
CUTE 1.7 + AOD 2 31 Mar 10:28:07 10:31:24 21° 290° (WNW) 10:34:34 437.475
AISAT 31 Mar 10:28:59 10:31:29 15° 92° (E) 10:34:11 437.250
POPSAT HIP 1 31 Mar 10:34:48 10:38:46 41° 74° (ENE) 10:42:45 437.405
AAUSAT CUBESAT 2 31 Mar 10:44:15 10:47:36 22° 289° (WNW) 10:50:50 437.432
NANOSAT C BR1 31 Mar 10:44:19 10:48:26 55° 75° (ENE) 10:52:33 145.865
VERMONT LUNAR 31 Mar 10:45:38 10:47:55 17° 215° (SW) 10:50:10 437.305
HO-68 31 Mar 10:49:00 10:55:12 31° 295° (WNW) 11:01:14 435.675
POLYITAN 1 31 Mar 10:50:29 10:54:40 67° 76° (ENE) 10:58:51 437.675
HUMSAT D 31 Mar 10:51:23 10:55:30 45° 99° (E) 10:59:39 437.325/437.525
SEEDS 31 Mar 10:55:16 10:57:18 13° 292° (WNW) 10:59:07 437.485
UKube-1 31 Mar 10:56:17 11:00:37 74° 103° (ESE) 11:04:56 .
BEESAT 3 31 Mar 11:00:56 11:03:23 15° 313° (NW) 11:05:43 437.485
DOVE 4 31 Mar 11:04:12 11:05:59 12° 292° (WNW) 11:07:34 437.250
ESTCUBE 1 31 Mar 11:05:14 11:08:28 20° 93° (E) 11:11:50 437.505/2401.250
DX 1 31 Mar 11:09:26 11:13:46 73° 284° (WNW) 11:18:04 434.975-435.025
50 SAT 31 Mar 11:12:39 11:16:36 52° 99° (E) 11:20:34 437.505
UNISAT 6 31 Mar 11:15:13 11:19:01 30° 264° (W) 11:22:48 437.425
TIGRISAT 31 Mar 11:24:46 11:28:17 24° 265° (W) 11:31:46 435.000
Oscar 11 31 Mar 11:26:13 11:29:14 18° 291° (WNW) 11:32:05 145.826/435.025
QB50P1 31 Mar 11:26:36 11:30:38 43° 262° (W) 11:34:40 145.935-145.965
DUCHIFAT 1 31 Mar 11:27:09 11:31:11 44° 261° (W) 11:35:13 145.980
FUNcube-1 31 Mar 11:40:31 11:44:08 24° 289° (WNW) 11:47:41 145.935
QB50P2 31 Mar 11:42:42 11:46:21 28° 264° (W) 11:49:59 145.880/145.840
PHONESAT 2.4 31 Mar 11:44:27 11:46:46 16° 215° (SW) 11:48:59 2401.200-2431.200
DELFI C3 31 Mar 11:46:57 11:48:42 12° 292° (WNW) 11:50:16 145.870
AIST 2 31 Mar 11:50:56 11:53:41 16° 313° (NW) 11:56:21 435.215
UWE-3 31 Mar 11:51:27 11:54:10 16° 291° (WNW) 11:56:44 435.000/436.395/437.385
CUBEBUG 1 31 Mar 11:51:49 11:56:07 61° 100° (E) 12:00:22 437.445
SPROUT 31 Mar 11:53:45 11:56:03 15° 92° (E) 11:58:33 437.525
ZACube-1 31 Mar 11:54:52 11:57:48 17° 291° (WNW) 12:00:38 437.345
BUGSAT 1 31 Mar 11:58:24 12:01:56 26° 264° (W) 12:05:23 437.445
VELOX 1 31 Mar 11:58:24 12:02:40 48° 286° (WNW) 12:06:54 145.980
ANTELSAT 31 Mar 11:59:48 12:00:11 10° 271° (W) 12:00:16 437.575/2403.000
CUBEBUG 2 31 Mar 12:03:27 12:03:45 10° 294° (WNW) 12:03:46 437.445
AISAT 31 Mar 12:04:11 12:08:19 40° 287° (WNW) 12:12:26 437.250
POPSAT HIP 1 31 Mar 12:12:42 12:14:55 13° 269° (W) 12:16:54 437.405
NANOSAT C BR1 31 Mar 12:24:13 12:24:42 10° 271° (W) 12:24:53 145.865
YUBILEINY 31 Mar 12:28:39 12:35:34 28° 85° (E) 12:42:50 435.215
HUMSAT D 31 Mar 12:28:40 12:30:57 14° 292° (WNW) 12:33:01 437.325/437.525
ESTCUBE 1 31 Mar 12:41:24 12:45:26 32° 288° (WNW) 12:49:25 437.505/2401.250
O/OREOS (USA 219) 31 Mar 12:46:09 12:49:18 19° 58° (ENE) 12:52:32 437.305
50 SAT 31 Mar 12:49:57 12:51:08 11° 293° (WNW) 12:52:04 437.505
Oscar 19 31 Mar 12:52:45 12:57:29 41° 72° (ENE) 13:02:18 437.125/150
TISAT 1 31 Mar 13:09:21 13:13:33 82° 284° (WNW) 13:17:45 437.305
SWISSCUBE 31 Mar 13:22:45 13:26:15 21° 93° (E) 13:29:51 437.505
BEESAT 31 Mar 13:25:20 13:28:46 20° 93° (E) 13:32:21 436.000
Gurwin Techsat 1B 31 Mar 13:27:10 13:31:09 23° 68° (ENE) 13:35:18 435.225
SPROUT 31 Mar 13:28:21 13:32:22 39° 287° (WNW) 13:36:21 437.525
CUBEBUG 1 31 Mar 13:30:54 13:32:02 11° 294° (WNW) 13:32:54 437.445
JUGNU 31 Mar 13:37:24 13:40:34 15° 174° (S) 13:43:48 437.505
ITAMSAT 1 31 Mar 14:02:54 14:08:02 63° 74° (ENE) 14:13:13 435.822/435.867
AIST 1 31 Mar 14:04:51 14:06:38 13° 70° (ENE) 14:08:38
ITUPSAT 1 31 Mar 14:12:43 14:17:30 65° 102° (ESE) 14:22:13 437.325
PCSat 31 Mar 14:17:27 14:22:52 89° 291° (WNW) 14:28:20 145.827
YUBILEINY 31 Mar 14:23:20 14:31:57 56° 282° (WNW) 14:40:36 435.215
O/OREOS (USA 219) 31 Mar 14:24:42 14:28:54 37° 255° (WSW) 14:33:00 437.305
KKS-1 31 Mar 14:33:09 14:36:10 18° 93° (E) 14:39:20 437.445
Oscar 19 31 Mar 14:33:15 14:37:03 20° 267° (W) 14:40:42 437.125/150
AO-7 31 Mar 14:37:02 14:43:43 29° 61° (ENE) 14:50:37 29.400- 29.500
SRMSAT 31 Mar 14:41:34 14:44:13 13° 171° (S) 14:46:57 437.500
STARS 31 Mar 14:59:15 15:02:40 22° 95° (E) 15:06:11 437.465
SWISSCUBE 31 Mar 14:59:52 15:04:14 35° 288° (WNW) 15:08:31 437.505
BEESAT 31 Mar 15:02:22 15:06:46 36° 288° (WNW) 15:11:05 436.000
Gurwin Techsat 1B 31 Mar 15:05:56 15:10:55 40° 262° (W) 15:15:54 435.225
JUGNU 31 Mar 15:25:24 15:28:51 16° 184° (S) 15:32:17 437.505
JAS-2 31 Mar 15:35:56 15:42:32 50° 70° (ENE) 15:49:50 435.910
AIST 1 31 Mar 15:40:32 15:44:38 43° 267° (W) 15:48:40
HORYU 2 31 Mar 15:41:08 15:45:32 70° 258° (WSW) 15:50:00 437.375
ITAMSAT 1 31 Mar 15:45:28 15:48:04 13° 270° (W) 15:50:21 435.822/435.867
ITUPSAT 1 31 Mar 15:52:52 15:54:54 12° 295° (WNW) 15:56:40 437.325
PCSat 31 Mar 16:04:29 16:07:09 13° 316° (NW) 16:09:34 145.827
KKS-1 31 Mar 16:08:53 16:12:57 34° 288° (WNW) 16:16:57 437.445
MOZHAYETS 4 31 Mar 16:25:21 16:28:23 18° 92° (E) 16:31:34
AO-7 31 Mar 16:27:54 16:36:05 59° 257° (WSW) 16:44:15 29.400- 29.500
SRMSAT 31 Mar 16:29:08 16:32:39 16° 181° (S) 16:36:10 437.500
STARS 31 Mar 16:35:21 16:39:09 28° 289° (WNW) 16:42:52 437.465
CUTE-I 31 Mar 16:45:29 16:47:19 12° 63° (ENE) 16:49:28 437.470
Cubesat XI-IV 31 Mar 16:46:13 16:48:14 13° 63° (ENE) 16:50:34 437.490
SO-50 31 Mar 17:05:38 17:08:15 16° 109° (ESE) 17:11:06 436.795
JUGNU 31 Mar 17:16:07 17:17:07 10° 193° (SSW) 17:18:00 437.505
JAS-2 31 Mar 17:21:56 17:27:53 29° 269° (W) 17:34:09 435.910
RS-15 31 Mar 17:37:34 17:47:00 37° 108° (ESE) 17:56:45 29.354- 29.394
BEESAT 3 31 Mar 17:43:33 17:46:01 16° 47° (NE) 17:48:36 437.485
AUBIESAT-1 31 Mar 17:49:20 17:53:47 38° 101° (E) 17:58:07 437.475
MOZHAYETS 4 31 Mar 18:01:28 18:05:49 39° 287° (WNW) 18:10:04
M-CUBED/EXP-1 PRIME 31 Mar 18:15:42 18:20:35 84° 107° (ESE) 18:25:16 437.505
SRMSAT 31 Mar 18:18:39 18:21:04 12° 190° (S) 18:23:24 437.500
CUBESAT XI-V 31 Mar 18:19:02 18:22:31 22° 93° (E) 18:26:06 437.345
CUTE-I 31 Mar 18:21:25 18:26:48 81° 257° (WSW) 18:32:11 437.470
Cubesat XI-IV 31 Mar 18:22:23 18:27:45 78° 257° (WSW) 18:33:09 437.490
STRAND 1 31 Mar 18:29:48 18:32:30 15° 91° (E) 18:35:27 437.568
AIST 2 31 Mar 18:35:55 18:38:38 17° 47° (NE) 18:41:26 435.215
GONETS M04 31 Mar 18:41:32 18:49:34 46° 89° (E) 18:57:47
SO-50 31 Mar 18:43:55 18:48:23 50° 304° (NW) 18:53:02 436.795
BEESAT 2 31 Mar 18:46:17 18:50:22 57° 58° (ENE) 18:54:23 435.950
BEESAT 3 31 Mar 19:20:26 19:24:22 46° 244° (WSW) 19:28:13 437.485
AUBIESAT-1 31 Mar 19:24:38 19:28:21 22° 297° (WNW) 19:31:51 437.475
HO-68 31 Mar 19:27:25 19:33:05 27° 64° (ENE) 19:38:57 435.675
CANX-2 31 Mar 19:30:49 19:32:27 12° 67° (ENE) 19:34:19 2200.000
PRISM 31 Mar 19:38:58 19:43:04 57° 286° (WNW) 19:47:07 437.425
CUTE 1.7 + AOD 2 31 Mar 19:43:27 19:45:55 16° 69° (ENE) 19:48:34 437.475
